Weather History for Zacatecas Airport, Mexico

Change the Weather History Date:

Friday, November 2, 2012

  Actual Average Record
Temperature  
Mean Temperature 54 °F -  
Max Temperature 71 °F 72 °F 78 °F (2011)
Min Temperature 37 °F 39 °F 32 °F (2005)
Degree Days  
Heating Degree Days 11    
Growing Degree Days 4 (Base 50)    
Moisture  
Dew Point 29 °F    
Average Humidity 43    
Maximum Humidity 81    
Minimum Humidity 15    
Precipitation  
Precipitation 0.00 in - - ()
Sea Level Pressure  
Sea Level Pressure 30.23 in    
Wind  
Wind Speed 3 mph ()    
Max Wind Speed 8 mph    
Max Gust Speed -    
Visibility 9.9 miles    
Events      
Averages and records for this station are not official NWS values.
T = Trace of Precipitation, MM = Missing Value Source: Averaged Metar Reports

Daily Weather History Graph

Daily Weather History Graph

Search for Another Location

Airport:

Trip Planner

Search our weather history database for the weather conditions in past years. The results will help you decide how hot, cold, wet, or windy it might be!

Date:

Astronomy

Nov. 02, 2012 Rise Set
Actual Time 6:56 AM CST 6:11 PM CST
Civil Twilight 6:33 AM CST 6:35 PM CST
Nautical Twilight 6:06 AM CST 7:01 PM CST
Astronomical Twilight 5:40 AM CST 7:28 PM CST
Moon 9:13 PM CST (11/2) 10:04 AM CST (11/2)
Length of Visible Light 12h 01m
Length of Day
11h 15m
Waning Gibbous, 87% of the Moon is Illuminated
Nov 2
Waning Gibbous
Nov 6
Last Quarter
Nov 13
New
Nov 20
First Quarter
Nov 28
Full

Hourly Weather History & Observations

Time (CST) Temp. Windchill Dew Point Humidity Pressure Visibility Wind Dir Wind Speed Gust Speed Precip Events Conditions
12:41 AM 42.8 °F - 33.8 °F 70% 30.28 in 10.0 mi Calm Calm - N/A   Scattered Clouds
1:41 AM 44.6 °F - 33.8 °F 66% 30.25 in 10.0 mi Calm Calm - N/A   Clear
2:41 AM 42.8 °F - 33.8 °F 70% 30.24 in 10.0 mi Calm Calm - N/A   Clear
3:41 AM 41.0 °F - 32.0 °F 70% 30.24 in 10.0 mi Calm Calm - N/A   Clear
4:41 AM 37.4 °F - 32.0 °F 81% 30.24 in 10.0 mi Calm Calm - N/A   Clear
5:41 AM 41.0 °F - 33.8 °F 76% 30.25 in 10.0 mi Calm Calm - N/A   Clear
6:47 AM 41.0 °F 36.4 °F 32.0 °F 70% 30.25 in 7.0 mi South 6.9 mph - N/A   Clear
7:42 AM 39.2 °F 34.2 °F 32.0 °F 75% 30.28 in 10.0 mi SSW 6.9 mph - N/A   Clear
8:42 AM 53.6 °F - 37.4 °F 54% 30.28 in 10.0 mi SSW 6.9 mph - N/A   Clear
9:42 AM 60.8 °F - 37.4 °F 42% 30.30 in 10.0 mi South 5.8 mph - N/A   Clear
11:00 AM 66.2 °F - 35.6 °F 32% 30.28 in 10.0 mi Calm Calm - N/A   Clear
12:02 PM 68.0 °F - 32.0 °F 26% 30.25 in 10.0 mi SW 8.1 mph - N/A   Clear
1:00 PM 69.8 °F - 30.2 °F 23% 30.22 in 10.0 mi Calm Calm - N/A   Partly Cloudy
1:52 PM 71.6 °F - 28.4 °F 20% 30.20 in 10.0 mi South 5.8 mph - N/A   Partly Cloudy
2:41 PM 71.6 °F - 23.0 °F 16% 30.17 in 10.0 mi SSW 6.9 mph - N/A   Partly Cloudy
3:41 PM 71.6 °F - 21.2 °F 15% 30.16 in 10.0 mi WSW 3.5 mph - N/A   Partly Cloudy
4:41 PM 71.6 °F - 23.0 °F 16% 30.15 in 10.0 mi SSW 4.6 mph - N/A   Partly Cloudy
5:50 PM 66.2 °F - 23.0 °F 19% 30.16 in 10.0 mi WSW 6.9 mph - N/A   Scattered Clouds
6:42 PM 60.8 °F - 24.8 °F 25% 30.17 in 10.0 mi South 4.6 mph - N/A   Partly Cloudy
7:47 PM 57.2 °F - 24.8 °F 29% 30.20 in 10.0 mi SW 4.6 mph - N/A   Partly Cloudy
8:42 PM 53.6 °F - 23.0 °F 30% 30.21 in 10.0 mi South 6.9 mph - N/A   Clear
9:40 PM 55.4 °F - 21.2 °F 26% 30.22 in 10.0 mi SW 4.6 mph - N/A   Clear
11:41 PM 44.6 °F 41.4 °F 21.2 °F 39% 30.22 in 10.0 mi SSW 5.8 mph - N/A   Partly Cloudy